Hourly Data Report for October 29, 2016

All times are specified in Local Standard Time (LST). Add 1 hour to adjust for Daylight Saving Time where and when it is observed.

WINNIPEG A CS
MANITOBA

49°55'00.000" N
97°14'58.000" W
238.70 m
502S001
71849
XWG

Download Data

Hourly Data (October 2016)
Hourly Data Report for October 29, 2016
Temp Definition
°C
Dew Point Temp Definition
°C
Rel Hum Definition
%
Wind Dir Definition
10's deg

Wind Spd Definition
km/h
Visibility Definition
km
Stn Press Definition
kPa
Hmdx Definition


Wind Chill Definition


Weather Definition


TIME
00:00 4.6 3.8 95 35 20   98.67     LegendNANA
01:00 3.9 3.1 94 34 25   98.73     LegendNANA
02:00 3.5 2.8 95 34 18   98.81     LegendNANA
03:00 3.1 2.9 98 33 21   98.88     LegendNANA
04:00 1.9 1.7 98 33 18   98.92     LegendNANA
05:00 1.5 1.4 99 33 17   98.98     LegendNANA
06:00 1.6 1.5 100 33 13   99.05     LegendNANA
07:00 0.9 0.9 100 33 17   99.09     LegendNANA
08:00 0.8 0.8 100 34 16   99.14     LegendNANA
09:00 1.9 1.4 97 32 16   99.23     LegendNANA
10:00 2.8 1.6 92 34 12   99.28     LegendNANA
11:00 3.3 1.9 91 35 7   99.33     LegendNANA
12:00 4.0 2.3 89 33 11   99.31     LegendNANA
13:00 4.9 2.3 84 33 12   99.28     LegendNANA
14:00 5.3 2.7 84 33 15   99.28     LegendNANA
15:00 5.3 2.9 85 34 17   99.28     LegendNANA
16:00 5.1 2.3 82 34 14   99.31     LegendNANA
17:00 4.5 2.5 87 31 16   99.32     LegendNANA
18:00 4.2 2.5 89 31 12   99.36     LegendNANA
19:00 2.3 1.6 95 29 7   99.37     LegendNANA
20:00 2.3 1.7 96 25 5   99.39     LegendNANA
21:00 0.6 0.4 99 23 7   99.39     LegendNANA
22:00 -0.4 -0.7 98 22 10   99.41   -4 LegendNANA
23:00 0.4 0.1 98 22 11   99.40     LegendNANA

Notes on Data Quality.

Legend

  • E = Estimated
  • M = Missing
  • NA = Not Available
  • ‡ = Partner data that is not subject to review by the National Climate Archives
Date modified: